Time,TemperatureF,DewpointF,PressureIn,WindDirection,WindDirectionDegrees,WindSpeedMPH,WindSpeedGustMPH,Humidity,HourlyPrecipIn,Conditions,Clouds,dailyrainin,SoftwareType,DateUTC
2013-12-15 00:12:00,-9.0,-13.0,30.26,North,352,6.0,10.0,82,0.00,,,0.00,,2013-12-15 06:12:00,
2013-12-15 00:22:00,-8.0,-12.0,30.26,NNE,19,7.0,9.0,82,0.00,,,0.00,,2013-12-15 06:22:00,
2013-12-15 00:42:00,-8.0,-12.0,30.27,NNE,23,7.0,11.0,81,0.00,,,0.00,,2013-12-15 06:42:00,
2013-12-15 00:52:00,-8.0,-12.0,30.26,NNW,346,7.0,10.0,80,0.00,,,0.00,,2013-12-15 06:52:00,
2013-12-15 01:11:00,-8.0,-12.0,30.26,NNE,25,7.0,9.0,80,0.00,,,0.00,,2013-12-15 07:11:00,
2013-12-15 01:22:00,-8.0,-13.0,30.27,North,358,4.0,10.0,79,0.00,,,0.00,,2013-12-15 07:22:00,
2013-12-15 01:42:00,-8.0,-13.0,30.27,North,354,6.0,10.0,79,0.00,,,0.00,,2013-12-15 07:42:00,
2013-12-15 01:52:00,-8.0,-13.0,30.27,North,9,5.0,8.0,79,0.00,,,0.00,,2013-12-15 07:52:00,
2013-12-15 02:11:00,-8.0,-13.0,30.27,North,11,5.0,9.0,79,0.00,,,0.00,,2013-12-15 08:11:00,
2013-12-15 02:22:00,-8.0,-12.0,30.27,NNE,20,3.0,9.0,80,0.00,,,0.00,,2013-12-15 08:22:00,
2013-12-15 02:42:00,-8.0,-13.0,30.27,North,4,4.0,10.0,79,0.00,,,0.00,,2013-12-15 08:42:00,
2013-12-15 02:52:00,-8.0,-13.0,30.27,North,359,4.0,8.0,79,0.00,,,0.00,,2013-12-15 08:52:00,
2013-12-15 03:11:00,-8.0,-13.0,30.28,NW,325,5.0,8.0,79,0.00,,,0.00,,2013-12-15 09:11:00,
2013-12-15 03:21:00,-8.0,-13.0,30.27,NE,39,5.0,10.0,79,0.00,,,0.00,,2013-12-15 09:21:00,
2013-12-15 03:43:00,-8.0,-13.0,30.28,NNE,32,7.0,9.0,79,0.00,,,0.00,,2013-12-15 09:43:00,
2013-12-15 03:53:00,-8.0,-13.0,30.27,NNE,20,5.0,11.0,79,0.00,,,0.00,,2013-12-15 09:53:00,
2013-12-15 04:12:00,-9.0,-13.0,30.27,NNE,17,5.0,9.0,80,0.00,,,0.00,,2013-12-15 10:12:00,
2013-12-15 04:23:00,-9.0,-14.0,30.26,ENE,63,3.0,7.0,79,0.00,,,0.00,,2013-12-15 10:23:00,
2013-12-15 04:43:00,-9.0,-13.0,30.27,NNE,25,4.0,7.0,80,0.00,,,0.00,,2013-12-15 10:43:00,
2013-12-15 04:52:00,-9.0,-13.0,30.25,NNE,27,5.0,8.0,80,0.00,,,0.00,,2013-12-15 10:52:00,
2013-12-15 05:12:00,-9.0,-14.0,30.25,NNE,17,4.0,7.0,79,0.00,,,0.00,,2013-12-15 11:12:00,
2013-12-15 05:21:00,-9.0,-14.0,30.24,NNW,345,3.0,7.0,79,0.00,,,0.00,,2013-12-15 11:21:00,
2013-12-15 05:42:00,-9.0,-13.0,30.25,North,1,4.0,7.0,80,0.00,,,0.00,,2013-12-15 11:42:00,
2013-12-15 05:52:00,-9.0,-13.0,30.24,North,352,3.0,9.0,80,0.00,,,0.00,,2013-12-15 11:52:00,
2013-12-15 06:12:00,-9.0,-13.0,30.25,North,360,2.0,5.0,80,0.00,,,0.00,,2013-12-15 12:12:00,
2013-12-15 06:22:00,-10.0,-14.0,30.25,NNE,27,3.0,7.0,80,0.00,,,0.00,,2013-12-15 12:22:00,
2013-12-15 06:42:00,-10.0,-14.0,30.25,NNE,16,3.0,6.0,81,0.00,,,0.00,,2013-12-15 12:42:00,
2013-12-15 06:52:00,-11.0,-15.0,30.27,NNE,23,2.0,5.0,81,0.00,,,0.00,,2013-12-15 12:52:00,
2013-12-15 07:11:00,-12.0,-16.0,30.27,North,1,2.0,5.0,81,0.00,,,0.00,,2013-12-15 13:11:00,
2013-12-15 07:21:00,-12.0,-16.0,30.27,North,1,2.0,5.0,81,0.00,,,0.00,,2013-12-15 13:21:00,
2013-12-15 07:42:00,-13.0,-17.0,30.27,NNE,16,1.0,4.0,81,0.00,,,0.00,,2013-12-15 13:42:00,
2013-12-15 07:52:00,-13.0,-17.0,30.27,NE,41,2.0,5.0,81,0.00,,,0.00,,2013-12-15 13:52:00,
2013-12-15 08:11:00,-14.0,-18.0,30.27,ENE,65,1.0,5.0,81,0.00,,,0.00,,2013-12-15 14:11:00,
2013-12-15 08:22:00,-14.0,-18.0,30.25,NNE,27,2.0,6.0,82,0.00,,,0.00,,2013-12-15 14:22:00,
2013-12-15 08:42:00,-15.0,-19.0,30.25,NNE,20,2.0,6.0,82,0.00,,,0.00,,2013-12-15 14:42:00,
2013-12-15 08:52:00,-15.0,-19.0,30.24,NE,39,1.0,4.0,81,0.00,,,0.00,,2013-12-15 14:52:00,
2013-12-15 09:12:00,-16.0,-20.0,30.24,NE,36,0.0,2.0,81,0.00,,,0.00,,2013-12-15 15:12:00,
2013-12-15 09:22:00,-16.0,-20.0,30.25,North,356,2.0,2.0,81,0.00,,,0.00,,2013-12-15 15:22:00,
2013-12-15 09:43:00,-16.0,-20.0,30.26,North,353,1.0,2.0,81,0.00,,,0.00,,2013-12-15 15:43:00,
2013-12-15 09:53:00,-17.0,-21.0,30.26,North,7,2.0,3.0,80,0.00,,,0.00,,2013-12-15 15:53:00,
2013-12-15 10:13:00,-16.0,-20.0,30.26,North,11,1.0,2.0,80,0.00,,,0.00,,2013-12-15 16:13:00,
2013-12-15 10:23:00,-15.0,-19.0,30.26,NNE,13,2.0,3.0,80,0.00,,,0.00,,2013-12-15 16:23:00,
2013-12-15 10:43:00,-14.0,-18.0,30.26,NNE,20,0.0,2.0,80,0.00,,,0.00,,2013-12-15 16:43:00,
2013-12-15 10:52:00,-13.0,-17.0,30.26,NNW,347,0.0,1.0,80,0.00,,,0.00,,2013-12-15 16:52:00,
2013-12-15 11:12:00,-13.0,-18.0,30.26,West,281,0.0,2.0,78,0.00,,,0.00,,2013-12-15 17:12:00,
2013-12-15 11:22:00,-12.0,-17.0,30.25,NNE,22,0.0,1.0,79,0.00,,,0.00,,2013-12-15 17:22:00,
2013-12-15 11:42:00,-11.0,-16.0,30.25,SE,146,0.0,2.0,78,0.00,,,0.00,,2013-12-15 17:42:00,
2013-12-15 11:52:00,-9.0,-14.0,30.25,SE,131,0.0,1.0,77,0.00,,,0.00,,2013-12-15 17:52:00,
2013-12-15 12:12:00,-10.0,-16.0,30.23,ESE,123,0.0,2.0,73,0.00,,,0.00,,2013-12-15 18:12:00,
2013-12-15 12:21:00,-10.0,-16.0,30.22,ESE,111,0.0,1.0,75,0.00,,,0.00,,2013-12-15 18:21:00,
2013-12-15 12:42:00,-10.0,-15.0,30.21,East,91,1.0,3.0,76,0.00,,,0.00,,2013-12-15 18:42:00,
2013-12-15 12:52:00,-9.0,-14.0,30.20,SE,143,0.0,1.0,76,0.00,,,0.00,,2013-12-15 18:52:00,
2013-12-15 13:11:00,-8.0,-15.0,30.21,SE,128,1.0,3.0,72,0.00,,,0.00,,2013-12-15 19:11:00,
2013-12-15 13:21:00,-10.0,-16.0,30.19,East,95,1.0,2.0,74,0.00,,,0.00,,2013-12-15 19:21:00,
2013-12-15 13:42:00,-10.0,-16.0,30.19,ESE,114,1.0,2.0,75,0.00,,,0.00,,2013-12-15 19:42:00,
2013-12-15 13:52:00,-9.0,-14.0,30.19,SE,134,1.0,2.0,76,0.00,,,0.00,,2013-12-15 19:52:00,
2013-12-15 14:11:00,-9.0,-14.0,30.18,ESE,121,2.0,4.0,76,0.00,,,0.00,,2013-12-15 20:11:00,
2013-12-15 14:22:00,-9.0,-14.0,30.18,SE,131,2.0,3.0,76,0.00,,,0.00,,2013-12-15 20:22:00,
2013-12-15 14:42:00,-9.0,-14.0,30.18,ESE,123,1.0,4.0,76,0.00,,,0.00,,2013-12-15 20:42:00,
2013-12-15 14:52:00,-9.0,-14.0,30.18,SE,133,2.0,4.0,76,0.00,,,0.00,,2013-12-15 20:52:00,
2013-12-15 15:11:00,-9.0,-14.0,30.17,ESE,114,2.0,3.0,76,0.00,,,0.00,,2013-12-15 21:11:00,
2013-12-15 15:21:00,-9.0,-14.0,30.16,SE,128,3.0,5.0,77,0.00,,,0.00,,2013-12-15 21:21:00,
2013-12-15 15:43:00,-9.0,-14.0,30.16,SE,139,2.0,4.0,77,0.00,,,0.00,,2013-12-15 21:43:00,
2013-12-15 15:54:00,-9.0,-14.0,30.16,SE,124,2.0,4.0,77,0.00,,,0.00,,2013-12-15 21:54:00,
2013-12-15 16:12:00,-9.0,-14.0,30.17,SE,124,2.0,4.0,77,0.00,,,0.00,,2013-12-15 22:12:00,
2013-12-15 16:23:00,-9.0,-14.0,30.17,SE,143,0.0,4.0,76,0.00,,,0.00,,2013-12-15 22:23:00,
2013-12-15 16:43:00,-9.0,-14.0,30.17,SSE,155,1.0,3.0,76,0.00,,,0.00,,2013-12-15 22:43:00,
2013-12-15 16:53:00,-9.0,-14.0,30.17,South,179,2.0,5.0,76,0.00,,,0.00,,2013-12-15 22:53:00,
2013-12-15 17:12:00,-9.0,-14.0,30.16,SE,131,1.0,4.0,77,0.00,,,0.00,,2013-12-15 23:12:00,
2013-12-15 17:22:00,-9.0,-14.0,30.15,ESE,121,2.0,5.0,78,0.00,,,0.00,,2013-12-15 23:22:00,
2013-12-15 17:52:00,-8.0,-13.0,30.14,ESE,110,2.0,4.0,79,0.00,,,0.00,,2013-12-15 23:52:00,
2013-12-15 18:11:00,-8.0,-12.0,30.15,SSE,163,1.0,4.0,80,0.00,,,0.00,,2013-12-16 00:11:00,
2013-12-15 18:22:00,-7.0,-12.0,30.13,SE,142,4.0,6.0,79,0.00,,,0.00,,2013-12-16 00:22:00,
2013-12-15 18:42:00,-7.0,-12.0,30.12,SE,139,4.0,6.0,80,0.00,,,0.00,,2013-12-16 00:42:00,
2013-12-15 18:52:00,-7.0,-12.0,30.11,SE,125,4.0,8.0,80,0.00,,,0.00,,2013-12-16 00:52:00,
2013-12-15 19:11:00,-7.0,-12.0,30.12,SSE,152,3.0,7.0,79,0.00,,,0.00,,2013-12-16 01:11:00,
2013-12-15 19:22:00,-6.0,-11.0,30.12,SSE,158,3.0,5.0,80,0.00,,,0.00,,2013-12-16 01:22:00,
2013-12-15 19:42:00,-6.0,-11.0,30.11,SSE,158,3.0,5.0,79,0.00,,,0.00,,2013-12-16 01:42:00,
2013-12-15 19:52:00,-6.0,-11.0,30.11,SSE,149,3.0,7.0,79,0.00,,,0.00,,2013-12-16 01:52:00,
2013-12-15 20:11:00,-6.0,-11.0,30.08,SE,127,6.0,8.0,79,0.00,,,0.00,,2013-12-16 02:11:00,
2013-12-15 20:22:00,-5.0,-10.0,30.10,SE,142,3.0,8.0,80,0.00,,,0.00,,2013-12-16 02:22:00,
2013-12-15 20:42:00,-5.0,-10.0,30.09,SSE,152,3.0,7.0,80,0.00,,,0.00,,2013-12-16 02:42:00,
2013-12-15 20:52:00,-5.0,-10.0,30.09,SE,124,4.0,6.0,80,0.00,,,0.00,,2013-12-16 02:52:00,
2013-12-15 21:21:00,-4.0,-9.0,30.09,SSE,166,3.0,7.0,80,0.00,,,0.00,,2013-12-16 03:21:00,
2013-12-15 21:43:00,-4.0,-8.0,30.08,South,190,2.0,8.0,81,0.00,,,0.00,,2013-12-16 03:43:00,
2013-12-15 21:54:00,-4.0,-8.0,30.08,South,190,2.0,8.0,81,0.00,,,0.00,,2013-12-16 03:54:00,
2013-12-15 22:13:00,-3.0,-7.0,30.06,SSW,200,3.0,6.0,82,0.00,,,0.00,,2013-12-16 04:13:00,
2013-12-15 22:23:00,-3.0,-7.0,30.04,SSE,160,4.0,9.0,83,0.00,,,0.00,,2013-12-16 04:23:00,
2013-12-15 22:42:00,-3.0,-7.0,30.02,SSW,197,6.0,10.0,83,0.00,,,0.00,,2013-12-16 04:42:00,
2013-12-15 22:53:00,-2.0,-6.0,30.02,South,179,4.0,12.0,84,0.00,,,0.00,,2013-12-16 04:53:00,
2013-12-15 23:12:00,-1.0,-5.0,30.00,SE,124,5.0,13.0,84,0.00,,,0.00,,2013-12-16 05:12:00,
2013-12-15 23:22:00,-1.0,-5.0,30.01,South,170,5.0,14.0,84,0.00,,,0.00,,2013-12-16 05:22:00,
2013-12-15 23:43:00,-1.0,-5.0,30.01,South,185,6.0,12.0,84,0.00,,,0.00,,2013-12-16 05:43:00,
2013-12-15 23:53:00,0.0,-4.0,30.02,SSW,201,7.0,13.0,83,0.00,,,0.00,,2013-12-16 05:53:00,